sat.trackr.live / text

‹ back to catalog

STARLINK-35809

NORAD 66373 · 2025-254AB

PAYLOAD ACTIVE UNKNOWN

§ Identity

Operator
Country
US
Launch date
2025-11-06
Launch site
AFWTR
Launch vehicle
Mass (kg)
RCS (m²)

Purposes: comms

External: N2YO · Heavens-Above · Gunter

§ Orbital elements

Epoch: 2026-05-24T17:55:47.960832Z

Period
94.11 min
Inclination
53.1578°
Eccentricity
0.0000814
Mean motion
15.30195747 rev/d
Perigee alt
474.7 km
Apogee alt
475.8 km
Semi-major
6,853.4 km
B*
7.7382e-4
RAAN
236.7691°
Arg perigee
78.9591°
Mean anomaly
281.1501°
Rev number
3,065

§ Raw data

STARLINK-358091 66373U 25254AB  26144.74708288  .00022626  00000+0  77382-3 0  99912 66373  53.1578 236.7691 0000814  78.9591 281.1501 15.30195747 30656

JSON: /api/v1/satellites/66373 · /tle

For live sub-satellite position, see the globe view (requires WebGL).

§ Visibility from observer

Set your observer location to see the next 7 days of passes ≥ 10°. The values pass through the URL so the page stays shareable.

No JS? Fill the form by hand. The geolocation button needs JavaScript.